KC3UTO Weather Reports


time (UTC)temp
C
wind
direction
speed
KPH
gust
KPH
rain 1hr
cm
rain 24hr
cm
rain mn
cm
humidity
%
barometer
mb
20260901014447 20 24 3.2 3.2 0.00 0.05 0.05 95 1017.8
20260901013942 20 23 1.6 3.2 0.00 0.05 0.05 95 1017.8
20260901013438 20 30 3.2 3.2 0.00 0.05 0.05 95 1017.9
20260901012933 20 23 3.2 3.2 0.00 0.05 0.05 95 1017.9
20260901012428 20 41 3.2 3.2 0.00 0.05 0.05 94 1018.0
20260901011923 20 29 3.2 3.2 0.00 0.05 0.05 94 1017.9
20260901011420 20 30 3.2 3.2 0.00 0.05 0.05 94 1017.9
20260901010917 21 41 3.2 3.2 0.00 0.05 0.05 94 1018.0
20260901010413 21 24 3.2 3.2 0.00 0.05 0.05 94 1017.8
20260901005911 21 346 0.0 3.2 0.00 0.05 0.05 94 1018.0
20260901005407 21 44 3.2 3.2 0.00 0.05 0.05 93 1017.5
20260901004901 21 27 1.6 3.2 0.00 0.05 0.05 93 1017.8
20260901004401 21 30 3.2 3.2 0.00 0.05 0.05 92 1017.9
20260901003856 21 17 1.6 3.2 0.00 0.05 0.05 92 1017.7
20260901003351 21 41 1.6 3.2 0.00 0.05 0.05 92 1017.6
20260901002849 21 21 3.2 3.2 0.00 0.05 0.05 92 1017.8
20260901002349 21 36 3.2 3.2 0.00 0.05 0.05 91 1017.8
20260901001843 21 27 3.2 3.2 0.00 0.05 0.05 91 1017.6
20260901001339 21 21 1.6 3.2 0.00 0.05 0.05 90 1017.4
20260901000835 21 25 3.2 3.2 0.00 0.05 0.05 89 1017.8
20260901000330 21 23 1.6 3.2 0.00 0.05 0.05 88 1017.7
20260831235827 22 28 3.2 3.2 0.00 0.05 0.05 88 1017.7
20260831235324 22 23 3.2 3.2 0.00 0.05 0.05 87 1017.6
20260831234819 22 27 1.6 3.2 0.00 0.05 0.05 87 1017.6
20260831234319 22 23 1.6 1.6 0.00 0.05 0.05 87 1017.6
20260831233814 22 42 1.6 3.2 0.00 0.05 0.05 87 1017.5
20260831233309 22 36 1.6 3.2 0.00 0.05 0.05 86 1017.7
20260831232804 22 18 3.2 3.2 0.00 0.05 0.05 86 1017.7
20260831232301 22 30 3.2 3.2 0.00 0.05 0.05 85 1017.5
20260831231756 22 32 3.2 3.2 0.00 0.05 0.05 84 1017.5
20260831231253 23 26 1.6 3.2 0.00 0.05 0.05 83 1017.7
20260831230748 23 25 1.6 3.2 0.00 0.05 0.05 82 1017.7
20260831230242 23 343 0.0 1.6 0.00 0.05 0.05 82 1017.7
20260831225741 23 24 0.0 3.2 0.00 0.05 0.05 81 1017.7
20260831225237 23 5 0.0 3.2 0.00 0.05 0.05 80 1017.9
20260831224732 24 316 1.6 1.6 0.00 0.05 0.05 78 1017.8
20260831224228 23 25 1.6 3.2 0.00 0.05 0.05 80 1017.8
20260831223723 23 319 0.0 3.2 0.00 0.05 0.05 80 1017.9
20260831223219 23 337 0.0 3.2 0.00 0.05 0.05 80 1017.8
20260831222715 23 284 0.0 1.6 0.00 0.05 0.05 80 1017.9
20260831222210 23 251 3.2 3.2 0.00 0.05 0.05 78 1018.1
20260831221706 24 44 1.6 3.2 0.00 0.05 0.05 79 1018.2
20260831221201 23 16 1.6 3.2 0.00 0.05 0.05 79 1017.9
20260831220655 23 58 0.0 1.6 0.00 0.05 0.05 80 1018.0
20260831220151 23 237 0.0 1.6 0.00 0.05 0.05 78 1018.3
20260831215646 23 13 1.6 3.2 0.00 0.05 0.05 80 1018.2
20260831215142 23 6 0.0 3.2 0.00 0.05 0.05 82 1018.3
20260831214639 23 17 0.0 1.6 0.00 0.05 0.05 82 1018.2
20260831214135 23 46 1.6 1.6 0.00 0.05 0.05 82 1018.3
20260831213631 23 25 0.0 1.6 0.00 0.05 0.05 81 1018.5
20260831213126 23 341 0.0 3.2 0.00 0.05 0.05 81 1018.3
20260831212623 23 294 0.0 1.6 0.00 0.05 0.05 82 1018.2
20260831212119 23 315 0.0 3.2 0.00 0.05 0.05 81 1018.5
20260831211618 23 274 1.6 3.2 0.00 0.05 0.05 82 1018.4
20260831211117 23 252 4.8 4.8 0.00 0.05 0.05 81 1018.6
20260831210613 23 278 3.2 3.2 0.00 0.05 0.05 81 1018.5
20260831210109 23 248 4.8 4.8 0.00 0.05 0.05 80 1018.4
20260831205608 23 307 1.6 3.2 0.00 0.05 0.05 78 1018.4
20260831205104 23 13 0.0 3.2 0.00 0.05 0.05 77 1018.5
20260831204559 23 16 0.0 1.6 0.00 0.05 0.05 78 1018.6
20260831204057 23 278 1.6 3.2 0.00 0.05 0.05 79 1018.5
20260831203552 23 310 0.0 3.2 0.00 0.05 0.05 80 1018.8
20260831203051 23 324 1.6 3.2 0.00 0.05 0.05 80 1018.7
20260831202550 23 309 0.0 4.8 0.00 0.05 0.05 80 1018.8
20260831202050 23 328 1.6 1.6 0.00 0.05 0.05 81 1018.6
20260831201549 23 321 1.6 3.2 0.00 0.05 0.05 84 1018.7
20260831201044 23 0 1.6 3.2 0.00 0.05 0.05 85 1018.9
20260831200540 23 48 0.0 3.2 0.00 0.05 0.05 84 1018.9
20260831200040 23 12 1.6 3.2 0.00 0.05 0.05 83 1019.1
20260831195536 23 13 1.6 3.2 0.00 0.05 0.05 80 1018.9
20260831195031 23 12 3.2 3.2 0.00 0.05 0.05 80 1018.9
20260831194526 23 34 1.6 3.2 0.05 0.05 0.05 79 1018.7
20260831194026 23 0 1.6 3.2 0.13 0.05 0.05 83 1019.2
20260831193521 23 70 3.2 3.2 0.13 0.05 0.05 81 1019.2
20260831193016 23 23 3.2 3.2 0.13 0.03 0.03 79 1019.2
20260831192511 23 339 0.0 1.6 0.05 0.03 0.03 77 1019.3
20260831192007 23 352 0.0 1.6 0.00 0.00 0.00 77 1019.6
20260831191503 24 328 0.0 1.6 0.00 0.00 0.00 76 1019.3
20260831190958 24 336 0.0 1.6 0.05 0.00 0.00 76 1019.3
20260831190454 24 17 1.6 3.2 0.00 0.00 0.00 74 1019.4
20260831185952 24 6 0.0 3.2 0.00 0.00 0.00 74 1019.6
20260831185448 24 327 3.2 3.2 0.00 0.00 0.00 73 1019.8
20260831184948 24 311 1.6 3.2 0.00 0.00 0.00 71 1019.6
20260831184443 24 27 1.6 3.2 0.00 0.00 0.00 72 1019.4
20260831183938 24 343 0.0 1.6 0.00 0.00 0.00 73 1019.6
20260831183437 24 0 0.0 3.2 0.00 0.00 0.00 72 1019.6
20260831182937 24 8 1.6 3.2 0.00 0.00 0.00 73 1019.6
20260831182432 24 0 0.0 1.6 0.00 0.00 0.00 70 1019.6
20260831181928 24 322 0.0 1.6 0.00 0.00 0.00 72 1019.7
20260831181424 24 297 0.0 3.2 0.00 0.00 0.00 71 1019.6
20260831180923 24 20 3.2 3.2 0.00 0.00 0.00 71 1019.6
20260831180417 24 343 3.2 3.2 0.00 0.00 0.00 71 1019.6
20260831175917 24 320 3.2 4.8 0.00 0.00 0.00 71 1019.8
20260831175414 24 43 3.2 3.2 0.00 0.00 0.00 71 1019.6
20260831174909 25 334 3.2 3.2 0.00 0.00 0.00 70 1019.7
20260831174404 25 45 1.6 3.2 0.00 0.00 0.00 69 1019.6
20260831173903 25 333 0.0 3.2 0.00 0.00 0.00 68 1019.9
20260831173357 25 315 0.0 3.2 0.00 0.00 0.00 68 1019.8
20260831172853 25 344 0.0 3.2 0.00 0.00 0.00 69 1020.0
20260831172349 24 7 3.2 3.2 0.00 0.00 0.00 69 1019.7
20260831171848 24 307 3.2 3.2 0.00 0.00 0.00 69 1019.7
20260831171344 24 293 0.0 3.2 0.00 0.00 0.00 68 1019.9
20260831170841 24 351 1.6 3.2 0.00 0.00 0.00 69 1019.8
20260831170337 24 330 1.6 3.2 0.00 0.00 0.00 69 1019.9
20260831165833 24 261 1.6 3.2 0.00 0.00 0.00 68 1019.9
20260831165329 25 295 1.6 4.8 0.00 0.00 0.00 69 1019.7
20260831164825 25 248 3.2 3.2 0.00 0.00 0.00 67 1019.7
20260831164321 25 337 3.2 3.2 0.00 0.00 0.00 66 1019.8
20260831163817 25 287 0.0 4.8 0.00 0.00 0.00 64 1019.5
20260831163312 25 295 3.2 4.8 0.00 0.00 0.00 65 1019.7
20260831162810 26 34 1.6 3.2 0.00 0.00 0.00 64 1019.8
20260831162307 26 32 1.6 3.2 0.00 0.00 0.00 65 1019.8
20260831161805 25 88 1.6 3.2 0.00 0.00 0.00 65 1019.8
20260831161302 25 88 1.6 3.2 0.00 0.00 0.00 65 1019.8
20260831160801 25 83 1.6 4.8 0.00 0.00 0.00 65 1019.8
20260831160256 25 275 3.2 3.2 0.00 0.00 0.00 65 1019.7
20260831155756 25 331 0.0 3.2 0.00 0.00 0.00 67 1019.7
20260831155252 25 100 1.6 3.2 0.00 0.00 0.00 66 1019.7
20260831154747 24 20 0.0 3.2 0.00 0.00 0.00 68 1019.8
20260831154243 24 93 3.2 3.2 0.00 0.00 0.00 69 1020.0
20260831153742 24 34 1.6 4.8 0.00 0.00 0.00 69 1020.0
20260831153238 24 98 4.8 6.4 0.00 0.00 0.00 71 1019.9
20260831152734 24 14 4.8 6.4 0.00 0.00 0.00 68 1020.0
20260831152230 24 57 3.2 3.2 0.00 0.00 0.00 71 1020.1
20260831151729 24 32 1.6 3.2 0.00 0.00 0.00 67 1020.1
20260831151223 24 63 1.6 4.8 0.00 0.00 0.00 71 1020.1
20260831150718 23 315 1.6 3.2 0.00 0.00 0.00 70 1020.0
20260831150214 23 74 4.8 6.4 0.00 0.00 0.00 70 1020.1
20260831145713 23 111 1.6 4.8 0.00 0.00 0.00 71 1020.2
20260831145209 23 32 3.2 3.2 0.00 0.00 0.00 71 1020.3
20260831144705 23 38 3.2 3.2 0.00 0.00 0.00 70 1020.3
20260831144201 23 55 1.6 4.8 0.00 0.00 0.00 73 1020.1
20260831143700 23 31 1.6 3.2 0.00 0.00 0.00 70 1020.2
20260831143155 23 279 3.2 3.2 0.00 0.00 0.00 71 1020.1
20260831142652 23 43 3.2 4.8 0.00 0.00 0.00 72 1020.3
20260831142147 23 101 4.8 4.8 0.00 0.00 0.00 72 1020.3
20260831141646 23 57 1.6 4.8 0.00 0.00 0.00 73 1020.2
20260831141141 23 67 3.2 4.8 0.00 0.00 0.00 74 1020.3
20260831140640 22 20 0.0 6.4 0.00 0.00 0.00 74 1020.2
20260831140135 22 59 3.2 3.2 0.00 0.00 0.00 76 1020.1
20260831135633 22 85 3.2 6.4 0.00 0.00 0.00 73 1020.2
20260831135129 22 68 3.2 9.7 0.00 0.00 0.00 72 1020.2
20260831134625 23 45 0.0 6.4 0.00 0.00 0.00 74 1020.1
20260831134121 23 76 3.2 6.4 0.00 0.00 0.00 74 1020.1
20260831133619 23 111 3.2 6.4 0.00 0.00 0.00 73 1020.0
20260831133115 23 78 0.0 8.0 0.00 0.00 0.00 72 1020.0
20260831132610 23 32 1.6 4.8 0.00 0.00 0.00 73 1020.0
20260831132109 23 59 3.2 3.2 0.00 0.00 0.00 74 1020.0
20260831131604 23 24 3.2 3.2 0.00 0.00 0.00 73 1019.9
20260831131100 23 30 3.2 3.2 0.00 0.00 0.00 75 1020.0
20260831130555 23 53 3.2 3.2 0.00 0.00 0.00 75 1019.9
20260831130051 23 76 1.6 4.8 0.00 0.00 0.00 74 1019.8
20260831125550 23 84 1.6 3.2 0.00 0.00 0.00 76 1019.9
20260831125045 22 51 3.2 4.8 0.00 0.00 0.00 81 1020.0
20260831124542 21 20 3.2 3.2 0.00 0.00 0.00 83 1020.1
20260831124037 21 18 3.2 6.4 0.00 0.00 0.00 84 1020.2
20260831123536 21 15 3.2 3.2 0.00 0.00 0.00 86 1020.1
20260831123031 21 343 0.0 3.2 0.00 0.00 0.00 87 1020.1
20260831122530 21 29 3.2 3.2 0.00 0.00 0.00 87 1020.1
20260831122027 21 25 1.6 3.2 0.00 0.00 0.00 88 1020.1
20260831121526 20 6 1.6 1.6 0.00 0.00 0.00 89 1019.9
20260831121023 20 348 1.6 3.2 0.00 0.00 0.00 89 1020.3
20260831120522 20 0 0.0 4.8 0.00 0.00 0.00 90 1020.2
20260831120018 20 40 4.8 6.4 0.00 0.00 0.00 90 1020.0
20260831115514 20 19 3.2 4.8 0.00 0.00 0.00 91 1020.2
20260831115009 20 20 3.2 4.8 0.00 0.00 0.00 91 1019.9
20260831114508 20 37 0.0 3.2 0.00 0.00 0.00 91 1019.8
20260831114003 20 20 0.0 3.2 0.00 0.00 0.00 92 1019.8
20260831113502 20 40 3.2 3.2 0.00 0.00 0.00 93 1019.9
20260831112958 20 354 1.6 4.8 0.00 0.00 0.00 94 1019.8
20260831112457 20 353 3.2 3.2 0.00 0.00 0.00 94 1019.9
20260831111952 20 53 3.2 3.2 0.00 0.00 0.00 94 1019.8
20260831111448 20 354 1.6 3.2 0.00 0.00 0.00 95 1019.9
20260831110944 19 18 3.2 3.2 0.00 0.00 0.00 95 1019.8
20260831110439 19 345 1.6 4.8 0.00 0.00 0.00 95 1019.6
20260831105937 19 31 3.2 4.8 0.00 0.00 0.00 95 1019.4
20260831105433 19 346 3.2 3.2 0.00 0.00 0.00 95 1019.2
20260831104928 18 350 1.6 3.2 0.00 0.00 0.00 95 1019.1
20260831104424 19 55 3.2 4.8 0.00 0.00 0.00 96 1019.2
20260831103920 18 25 0.0 3.2 0.00 0.00 0.00 96 1019.3
20260831103414 18 35 3.2 3.2 0.00 0.00 0.00 96 1019.3
20260831102910 18 17 1.6 3.2 0.00 0.00 0.00 96 1019.4
20260831102409 19 47 3.2 3.2 0.00 0.00 0.00 96 1019.3
20260831101905 19 22 3.2 3.2 0.00 0.00 0.00 96 1019.3
20260831101400 19 32 3.2 4.8 0.00 0.00 0.00 96 1019.2
20260831100856 19 20 3.2 3.2 0.00 0.00 0.00 96 1019.1
20260831100352 19 27 3.2 3.2 0.00 0.00 0.00 96 1019.3
20260831095852 19 32 3.2 4.8 0.00 0.00 0.00 96 1019.2
20260831095351 19 38 1.6 3.2 0.00 0.00 0.00 96 1019.2
20260831094846 19 44 3.2 3.2 0.00 0.00 0.00 96 1019.2
20260831094342 19 31 3.2 3.2 0.00 0.00 0.00 96 1019.3
20260831093838 19 14 3.2 3.2 0.00 0.00 0.00 96 1018.8
20260831093333 19 317 1.6 3.2 0.00 0.00 0.00 96 1018.8
20260831092830 19 18 3.2 3.2 0.00 0.00 0.00 96 1018.9
20260831092325 19 354 3.2 3.2 0.00 0.00 0.00 95 1019.0
20260831091820 19 304 3.2 3.2 0.00 0.00 0.00 95 1018.8
20260831091316 19 18 3.2 3.2 0.00 0.00 0.00 95 1018.6
20260831090811 19 57 0.0 4.8 0.00 0.00 0.00 95 1018.8
20260831090307 19 35 3.2 4.8 0.00 0.00 0.00 95 1018.8
20260831085803 20 11 3.2 4.8 0.00 0.00 0.00 95 1018.9
20260831085258 20 28 3.2 4.8 0.00 0.00 0.00 94 1018.7
20260831084758 20 36 3.2 3.2 0.00 0.00 0.00 94 1018.8
20260831084254 20 357 3.2 3.2 0.00 0.00 0.00 94 1018.7
20260831083749 20 27 0.0 3.2 0.00 0.00 0.00 94 1018.8
20260831083245 20 27 3.2 4.8 0.00 0.00 0.00 94 1018.8
20260831082743 20 3 1.6 3.2 0.00 0.00 0.00 95 1018.9
20260831082239 20 13 3.2 4.8 0.00 0.00 0.00 95 1018.9
20260831081734 20 359 3.2 4.8 0.00 0.00 0.00 95 1018.8
20260831081230 20 17 4.8 4.8 0.00 0.00 0.00 96 1018.6
20260831080725 20 25 0.0 3.2 0.00 0.00 0.00 96 1018.7
20260831080220 20 81 0.0 3.2 0.00 0.00 0.00 96 1018.8
20260831075716 20 56 3.2 3.2 0.00 0.00 0.00 96 1018.7
20260831075212 20 19 3.2 3.2 0.00 0.00 0.00 96 1018.8
20260831074711 20 20 3.2 4.8 0.00 0.00 0.00 97 1018.8
20260831074210 20 18 3.2 3.2 0.00 0.00 0.00 96 1018.7
20260831073706 20 36 3.2 3.2 0.00 0.00 0.00 96 1018.9
20260831073205 20 22 1.6 3.2 0.00 0.00 0.00 97 1018.9
20260831072700 21 25 3.2 3.2 0.00 0.00 0.00 97 1018.9
20260831072157 21 19 1.6 3.2 0.00 0.00 0.00 97 1018.8
20260831071656 21 26 3.2 3.2 0.00 0.00 0.00 97 1018.8
20260831071151 21 47 3.2 3.2 0.00 0.00 0.00 96 1018.7
20260831070650 21 22 3.2 3.2 0.00 0.00 0.00 96 1018.8
20260831070145 21 27 3.2 3.2 0.00 0.00 0.00 96 1018.8
20260831065644 21 17 3.2 3.2 0.00 0.00 0.00 96 1018.9
20260831065143 21 25 3.2 3.2 0.00 0.00 0.00 96 1018.6
20260831064638 21 38 3.2 3.2 0.00 0.00 0.00 96 1018.6
20260831064133 21 28 3.2 3.2 0.00 0.00 0.00 96 1018.7
20260831063629 21 26 1.6 3.2 0.00 0.00 0.00 96 1018.7
20260831063124 21 21 1.6 3.2 0.00 0.00 0.00 96 1018.8
20260831062618 21 24 3.2 3.2 0.00 0.00 0.00 95 1018.6
20260831062118 21 19 3.2 3.2 0.00 0.00 0.00 95 1018.7
20260831061616 21 24 1.6 3.2 0.00 0.00 0.00 95 1018.7
20260831061112 21 338 1.6 3.2 0.00 0.00 0.00 95 1019.0
20260831060608 21 41 3.2 3.2 0.00 0.00 0.00 95 1018.9
20260831060103 21 344 1.6 3.2 0.00 0.00 0.00 95 1018.9
20260831055602 22 9 1.6 3.2 0.00 0.00 0.00 95 1018.8
20260831055058 22 336 1.6 3.2 0.00 0.00 0.00 95 1018.6
20260831054557 22 341 0.0 1.6 0.00 0.00 0.00 95 1018.5
20260831054057 22 322 0.0 1.6 0.00 0.00 0.00 96 1018.5
20260831053555 22 314 0.0 3.2 0.00 0.00 0.00 96 1018.2
20260831053050 22 23 1.6 3.2 0.00 0.00 0.00 96 1018.5
20260831052549 22 21 3.2 3.2 0.00 0.00 0.00 96 1018.2
20260831052049 22 9 1.6 3.2 0.00 0.00 0.00 96 1018.2
20260831051548 22 47 3.2 3.2 0.00 0.00 0.00 96 1018.3
20260831051047 22 14 1.6 3.2 0.00 0.00 0.00 96 1018.5
20260831050547 22 50 3.2 3.2 0.00 0.00 0.00 96 1018.6
20260831050045 22 17 3.2 3.2 0.00 0.00 0.00 95 1018.8
20260831045545 22 315 0.0 4.8 0.00 0.00 0.00 95 1018.8
20260831045041 22 26 0.0 1.6 0.00 0.00 0.00 95 1018.8
20260831044536 22 22 3.2 4.8 0.00 0.00 0.00 95 1018.8
20260831044031 22 358 3.2 3.2 0.00 0.00 0.00 95 1018.9
20260831043531 22 38 3.2 3.2 0.00 0.00 0.00 95 1019.0
20260831043027 22 8 3.2 3.2 0.00 0.00 0.00 94 1018.8
20260831042526 22 32 3.2 3.2 0.00 0.00 0.00 94 1018.9
20260831042026 22 18 1.6 3.2 0.00 0.00 0.00 94 1018.8
20260831041516 22 13 0.0 1.6 0.00 0.00 0.00 94 1018.9
20260831041015 22 13 1.6 3.2 0.00 0.00 0.00 94 1018.9
20260831040510 22 340 1.6 1.6 0.00 0.00 0.00 94 1018.9
20260831040010 22 35 1.6 3.2 0.00 0.03 0.03 93 1018.9
20260831035507 22 39 0.0 3.2 0.00 0.03 0.03 92 1018.9
20260831035003 22 21 3.2 3.2 0.00 0.03 0.03 92 1019.0
20260831034457 22 354 0.0 1.6 0.00 0.03 0.03 92 1019.1
20260831033952 22 336 0.0 1.6 0.00 0.03 0.03 92 1018.8
20260831033448 22 18 1.6 3.2 0.00 0.03 0.03 92 1018.8
20260831032943 23 42 1.6 1.6 0.00 0.03 0.03 92 1018.6
20260831032443 22 19 0.0 3.2 0.00 0.03 0.03 92 1018.7
20260831031939 22 38 3.2 3.2 0.00 0.03 0.03 92 1018.7
20260831031438 23 61 3.2 3.2 0.00 0.03 0.03 92 1018.8
20260831030937 23 37 3.2 3.2 0.00 0.03 0.03 92 1018.8
20260831030437 23 342 3.2 3.2 0.00 0.03 0.03 92 1018.9
20260831025935 23 343 0.0 1.6 0.00 0.03 0.03 92 1018.7
20260831025434 23 309 0.0 1.6 0.00 0.03 0.03 91 1018.6
20260831024930 23 326 0.0 1.6 0.00 0.03 0.03 91 1018.8
20260831024430 23 293 1.6 3.2 0.00 0.03 0.03 90 1018.9
20260831023925 23 308 0.0 1.6 0.00 0.03 0.03 90 1018.6
20260831023423 23 37 3.2 3.2 0.00 0.03 0.03 90 1018.7
20260831022918 23 311 3.2 3.2 0.00 0.03 0.03 90 1018.7
20260831022417 23 19 1.6 3.2 0.00 0.03 0.03 89 1018.8
20260831021912 23 5 1.6 3.2 0.00 0.03 0.03 89 1018.6
20260831021411 23 34 1.6 3.2 0.00 0.03 0.03 89 1018.6
20260831020908 23 42 1.6 4.8 0.00 0.03 0.03 88 1019.0
20260831020407 23 7 4.8 4.8 0.00 0.03 0.03 88 1018.7
20260831015902 23 24 3.2 3.2 0.00 0.03 0.03 88 1018.7
20260831015358 23 26 1.6 3.2 0.00 0.03 0.03 87 1018.5